ORBCOMM FM15 [+]

Last updated on Fri May 12 2023 01:03:02 GMT+0100 (British Summer Time)

1 25418U 98046F 23130.99308568 .00001461 00000+0 56354-3 0 9991 2 25418 44.9976 210.0998 0001235 29.1748 141.1744 14.34462331293807
UTC large
Height (km)
Speed (km/s)
/
Latitude / Longitude
Inclination (degrees)
Orbital Period (minutes)
Azimuth
Elevation
Range (km)
Doppler Factor

Next 0 passes for location: London (51.5072 / 0.1276)

Sorry there are no passes over London.